Wind_Speed
23 22 25 25 23 22 23 24 26 25 25 24 23 23 22 20 18 16 14 12 11 13 15 17 19 23 24 19 17 15 14 9
26 24 26 29 28 26 25 26 27 28 27 27 26 25 25 22 20 17 15 13 13 15 16 18 20 24 25 22 13 14 14 7
25 30 24 30 30 28 27 27 27 29 30 29 29 28 27 25 23 20 16 14 15 16 18 19 21 22 25 23 16 13 18 17
28 25 23 27 28 30 29 30 30 31 33 33 33 32 31 29 27 22 18 16 16 17 19 20 21 21 23 27 13 18 4 9
23 29 30 26 29 30 31 33 34 35 36 38 37 36 33 31 30 26 23 21 21 21 22 21 22 21 20 24 13 18 5 8
27 26 28 29 30 30 29 33 37 38 40 41 42 40 37 34 33 31 28 26 25 24 24 22 21 19 24 14 11 14 13 11
36 33 30 34 32 31 30 31 37 39 40 44 45 45 42 39 35 32 31 29 28 27 25 26 20 17 20 13 14 11 14 13
30 39 37 33 39 38 36 34 34 40 41 46 46 47 43 41 37 34 34 33 30 30 29 28 23 22 19 15 20 11 16 14
38 37 40 39 35 41 37 35 35 42 45 45 47 49 46 41 41 35 34 33 32 31 28 25 24 23 20 20 19 17 16 13
40 35 43 43 40 38 40 36 36 44 45 46 47 50 50 45 44 39 36 33 35 34 29 29 28 26 23 22 20 19 19 15
44 40 40 45 44 40 41 40 40 38 45 49 47 50 49 47 45 43 40 37 38 35 33 34 32 28 24 22 21 19 20 19
33 43 33 43 43 44 41 44 40 40 47 50 49 54 52 48 46 46 44 41 40 39 36 37 35 32 27 24 22 18 19 17
43 35 42 39 45 45 41 44 42 42 46 50 48 53 57 51 50 47 46 45 44 44 40 42 37 34 28 24 23 20 19 18
38 37 44 42 46 46 48 48 50 50 48 47 49 53 56 55 51 50 49 47 46 47 44 42 37 36 37 34 27 22 22 20
29 38 47 37 40 46 48 49 51 46 47 49 47 50 55 55 53 49 50 50 50 50 51 49 44 41 37 30 19 14 27 27
28 29 37 29 45 47 48 51 49 52 47 47 49 50 52 57 56 50 52 53 49 50 53 51 49 48 43 36 31 23 20 16
34 24 32 36 31 47 48 48 44 48 51 47 49 50 53 55 60 54 53 54 51 51 55 54 49 51 52 44 31 19 23 19
32 29 16 35 37 39 47 50 50 48 50 52 47 51 51 53 59 58 53 55 55 57 56 58 57 53 50 50 42 35 29 19
35 26 26 20 35 34 37 53 51 52 54 57 54 47 49 55 58 57 61 56 59 59 59 58 59 55 54 53 50 44 33 29
41 36 25 18 13 34 46 48 50 55 54 54 58 62 55 59 60 57 61 62 60 58 61 60 58 56 55 53 48 42 41 46
Wind_Direction
229 228 222 216 215 214 213 214 213 211 212 209 204 196 194 189 187 191 190 180 175 175 167 158 152 147 148 137 128 128 144 162
227 233 221 214 213 214 215 216 216 214 215 212 207 200 195 193 190 194 193 184 178 174 168 162 156 153 149 142 131 135 157 157
226 241 223 213 213 215 211 214 215 216 216 215 208 203 197 194 193 196 191 187 180 173 170 167 163 163 158 149 125 101 143 166
222 224 225 210 214 217 211 206 210 214 213 212 209 205 201 196 198 194 192 190 182 176 172 170 172 168 163 157 124 134 180 189
235 228 226 209 217 220 211 207 206 209 211 210 207 205 200 197 198 192 193 189 185 179 175 174 175 171 163 156 140 154 205 221
238 241 223 216 219 221 217 213 206 207 208 208 205 203 200 197 200 194 193 190 188 183 179 171 166 170 159 142 153 154 212 226
223 232 232 218 213 220 216 214 208 204 206 207 204 203 204 197 201 199 195 194 191 186 182 172 163 169 175 138 183 151 215 227
247 224 232 223 219 216 215 215 209 199 206 208 203 203 205 198 201 201 199 196 193 192 185 174 165 174 198 174 171 159 202 236
252 230 225 230 230 219 212 213 210 200 204 207 203 200 205 198 201 203 201 195 197 193 186 173 178 181 198 189 177 185 182 239
248 240 225 229 233 230 213 207 214 201 205 207 204 202 206 198 201 200 199 195 199 193 185 180 189 185 192 191 182 190 183 215
248 250 228 225 232 227 223 200 213 206 203 207 205 201 204 201 201 202 198 200 199 193 191 192 191 186 192 191 185 193 196 197
251 245 248 216 224 227 224 205 207 208 201 209 205 203 203 200 202 202 202 204 198 192 194 199 197 187 188 192 186 191 208 198
265 258 239 217 211 219 221 212 203 203 199 211 208 205 203 199 200 201 200 207 204 197 194 198 197 189 179 186 189 193 208 205
269 256 249 230 226 220 221 222 204 202 202 207 212 207 201 199 198 201 206 209 204 196 194 197 196 189 184 181 181 193 200 206
296 280 265 231 224 218 221 220 215 205 201 201 206 207 204 200 199 205 210 212 209 206 201 205 194 193 187 181 165 197 199 204
303 284 267 254 224 224 222 219 211 208 204 205 199 208 209 205 205 202 213 214 210 212 210 208 201 192 189 200 203 192 182 193
329 305 264 261 280 216 219 227 222 218 214 207 202 207 210 206 208 201 211 216 217 216 212 209 202 206 199 198 194 185 206 197
337 317 305 257 280 230 221 219 219 221 216 214 209 200 206 207 206 203 209 219 217 216 218 215 213 212 213 204 201 192 194 196
10 342 327 283 268 225 242 218 219 218 221 218 210 219 204 208 206 204 206 216 218 218 217 217 216 217 216 212 215 212 220 220
22 17 7 350 283 237 245 225 217 221 221 219 219 216 219 211 212 210 205 215 219 220 220 221 222 221 222 219 214 220 239 246
Height
1488 1491 1494 1496 1499 1501 1505 1511 1515 1517 1519 1524 1528 1531 1536 1538 1542 1546 1549 1550 1552 1555 1557 1560 1563 1567 1570 1573 1574 1575 1577 1579
1482 1486 1489 1492 1495 1498 1501 1508 1511 1515 1518 1522 1527 1529 1534 1537 1541 1544 1549 1551 1552 1555 1557 1560 1564 1568 1571 1574 1576 1577 1579 1579
1479 1482 1485 1488 1491 1494 1498 1504 1508 1513 1516 1520 1525 1528 1532 1536 1540 1543 1548 1551 1553 1554 1557 1560 1564 1568 1571 1574 1577 1578 1579 1579
1475 1477 1479 1483 1487 1490 1493 1498 1502 1508 1512 1516 1521 1526 1529 1533 1537 1542 1546 1550 1553 1554 1557 1560 1564 1567 1571 1574 1576 1578 1579 1581
1469 1473 1474 1477 1480 1483 1487 1490 1496 1501 1505 1510 1516 1521 1527 1531 1534 1538 1542 1547 1551 1553 1556 1559 1563 1566 1571 1575 1577 1580 1579 1580
1464 1465 1468 1471 1473 1476 1479 1483 1487 1494 1498 1503 1509 1515 1521 1525 1528 1534 1538 1543 1548 1551 1554 1559 1562 1566 1571 1574 1577 1580 1579 1580
1455 1457 1460 1463 1466 1469 1472 1475 1479 1486 1491 1495 1503 1508 1514 1519 1525 1529 1534 1540 1545 1549 1553 1557 1561 1566 1570 1573 1577 1579 1578 1580
1455 1451 1453 1456 1459 1463 1466 1468 1472 1480 1484 1488 1496 1502 1509 1515 1520 1525 1529 1536 1542 1547 1551 1555 1559 1565 1568 1572 1575 1578 1577 1578
1449 1445 1446 1447 1452 1457 1462 1464 1468 1474 1478 1481 1490 1497 1503 1510 1516 1521 1525 1532 1539 1545 1550 1554 1558 1563 1566 1570 1573 1576 1578 1576
1442 1443 1438 1441 1445 1450 1457 1462 1463 1469 1474 1478 1483 1491 1497 1504 1512 1516 1521 1528 1535 1542 1546 1551 1555 1560 1563 1567 1571 1573 1577 1575
1434 1435 1430 1432 1439 1443 1449 1456 1457 1462 1467 1470 1478 1485 1492 1498 1506 1511 1517 1522 1530 1538 1543 1547 1549 1556 1560 1564 1568 1571 1573 1576
1424 1425 1428 1422 1431 1436 1441 1449 1454 1456 1458 1461 1469 1477 1484 1492 1499 1505 1511 1516 1524 1532 1538 1541 1546 1550 1557 1562 1566 1569 1571 1574
1415 1416 1418 1417 1419 1427 1434 1435 1444 1449 1453 1454 1460 1468 1475 1484 1491 1500 1503 1508 1516 1523 1532 1535 1542 1546 1554 1560 1565 1567 1569 1571
1413 1411 1410 1411 1413 1416 1424 1427 1435 1439 1444 1449 1452 1460 1467 1475 1482 1490 1496 1502 1510 1518 1524 1530 1538 1542 1545 1551 1559 1565 1567 1568
1397 1400 1402 1402 1403 1406 1416 1421 1425 1429 1436 1441 1445 1452 1460 1468 1475 1482 1488 1494 1500 1509 1516 1520 1528 1535 1540 1541 1551 1555 1560 1564
1388 1389 1387 1392 1397 1396 1401 1408 1405 1417 1425 1432 1434 1443 1450 1458 1466 1473 1479 1485 1492 1500 1508 1514 1518 1525 1534 1537 1539 1542 1549 1556
1389 1389 1382 1382 1389 1381 1386 1398 1405 1412 1417 1422 1429 1435 1441 1447 1454 1466 1470 1477 1485 1492 1498 1506 1513 1517 1523 1529 1535 1536 1541 1544
1387 1383 1384 1386 1386 1382 1381 1386 1397 1404 1406 1411 1417 1420 1433 1436 1446 1454 1461 1467 1475 1482 1489 1495 1503 1510 1517 1521 1525 1529 1533 1535
1384 1384 1379 1375 1373 1374 1379 1377 1384 1393 1399 1399 1410 1416 1424 1429 1437 1443 1451 1458 1464 1471 1478 1487 1493 1501 1507 1512 1517 1522 1529 1532
1392 1386 1380 1378 1375 1366 1369 1374 1376 1382 1389 1395 1396 1404 1415 1420 1424 1431 1441 1448 1454 1460 1467 1475 1484 1492 1499 1504 1508 1513 1518 1524